Location: Vancouver
(49.2500°N, 123.1333°W)
Time: 23:38:52
(UTC-08:00)

Daily predictions for brighter satellites

Satellite Brightness Start Highest point End
(mag) Time Altitude Azimuth Time Altitude Azimuth Time Altitude Azimuth
Meteor 1-25 Rocket 4.5 18:16:16 10° SSW 18:21:55 80° WNW 18:27:42 10° N
SL-16 R/B 3.8 18:21:14 10° N 18:24:53 17° NE 18:28:33 10° ENE
COSMO-SKYMED 1 2.5 18:21:21 10° NNE 18:25:43 74° ESE 18:30:03 10° S
Cosmos 1602 4.0 18:24:35 10° SSE 18:28:19 48° E 18:32:08 10° NNE
BREEZE-M DEB (TANK) 2.9 18:26:01 10° W 18:28:36 71° SSW 18:34:25 10° ESE
ATLAS CENTAUR R/B 3.9 18:33:33 10° NW 18:35:15 12° NNW 18:36:56 10° N
Cosmos 407 Rocket 4.1 18:32:43 10° SW 18:37:57 63° WNW 18:43:17 10° NNE
Resurs 01 Rocket 2.2 18:36:08 10° SE 18:40:11 37° ENE 18:44:14 10° N
Cosmos 1741 Rocket 4.4 18:35:31 10° S 18:40:23 42° ESE 18:45:17 10° NE
Meteor 1-28 Rocket 3.3 18:39:50 10° NNE 18:43:40 85° WNW 18:47:29 10° SSW
Cosmos 1833 4.2 18:38:48 10° SSW 18:44:29 83° ESE 18:50:09 10° NNE
Cosmos 676 Rocket 4.3 18:41:10 10° SSW 18:46:21 74° WNW 18:51:37 10° NNE
NOAA 12 4.3 18:42:18 10° SSE 18:47:38 82° WSW 18:53:01 10° NNW
Genesis I 4.5 18:44:31 10° NW 18:48:17 43° WSW 18:52:01 10° SSE
Cosmos 2333 Rocket 2.5 18:42:52 10° NNW 18:48:27 47° NE 18:53:59 10° SE
Cosmos 1140 Rocket 3.4 18:43:33 10° SSW 18:48:40 76° ESE 18:53:52 10° NNE
Cosmos 1980 4.2 18:43:55 10° NNW 18:49:15 40° NE 18:54:33 10° ESE
Cosmos 614 Rocket 3.9 18:44:21 10° S 18:49:19 60° ESE 18:54:19 10° NNE
Cosmos 1633 2.6 18:45:45 10° S 18:49:26 89° W 18:53:09 10° N
Resurs 1-3 4.1 18:46:20 10° SE 18:50:24 39° ENE 18:54:30 10° N
Meteor 1-11 Rocket 3.8 18:44:52 10° S 18:50:40 70° E 18:56:37 10° NNE
ASTRO F (AKARI) 4.4 18:49:18 10° NNE 18:52:53 90° NW 18:56:14 10° SSW
Cosmos 1570 Rocket 4.2 18:49:53 10° NNW 18:55:07 77° WSW 19:00:21 10° SSE
FENGYUN 3A 3.6 18:50:15 10° SSE 18:55:37 67° ENE 19:01:01 10° N
Cosmos 1818 4.2 18:50:57 10° SW 18:56:20 59° NW 19:01:45 10° NE
Cosmos 1238 Rocket 3.2 18:53:57 10° NNW 18:56:49 47° W 18:59:43 10° S
Cosmos 1892 Rocket 4.2 18:53:49 10° N 18:57:49 34° ENE 19:01:48 10° SE
Okean 1 Rocket 3.0 18:53:45 10° S 18:58:13 72° E 19:02:42 10° NNE
Cosmos 1025 Rocket 3.0 18:55:35 10° N 18:59:57 65° ENE 19:04:20 10° SSE
Cosmos 468 Rocket 4.1 18:57:49 10° NNW 19:02:58 54° ENE 19:08:08 10° SE
USA 186 2.9 19:03:14 20° ENE 19:03:14 20° ENE 19:05:16 10° NNE
Cosmos 2181 Rocket 4.4 18:57:35 10° NNW 19:03:48 68° W 19:10:06 10° S
SL-19 R/B 4.4 19:04:18 10° SSE 19:10:06 77° ENE 19:16:22 10° NNW
Spot 2 Rocket 3.4 19:07:51 10° SSE 19:12:53 73° ENE 19:17:59 10° NNW
USA 229 DEB 4.0 19:06:12 10° NW 19:13:18 74° SW 19:20:31 10° SSE
USA 229 4.0 19:06:18 10° NW 19:13:24 75° SW 19:20:37 10° SSE
Cosmos 2074 Rocket 3.9 19:10:52 10° S 19:17:04 68° E 19:23:19 10° NNE
Meteor 1-5 Rocket 4.3 19:12:38 10° S 19:18:30 63° E 19:24:17 10° NNE
SL-08 ROCKET BODY 4.4 19:13:12 10° S 19:19:22 77° E 19:25:34 10° NNE
Cosmos 405 Rocket 2.8 19:15:25 10° N 19:19:28 59° ENE 19:23:26 10° SSE
Cosmos 332 Rocket 4.4 19:16:17 10° N 19:20:50 36° ENE 19:22:54 25° ESE
Spot 1 4.1 19:17:28 12° SE 19:21:07 52° ENE 19:25:15 10° N
FengYun 1-2 T 4.3 19:16:42 10° SSE 19:22:11 79° WSW 19:27:45 10° NNW
NOSS 8 (H) 4.4 19:18:51 10° SW 19:22:14 83° SE 19:25:03 17° NE
SJ-6B 4.0 19:18:38 10° S 19:22:25 44° W 19:26:10 10° NNW
HJ-1C 3.9 19:20:01 10° S 19:23:20 61° W 19:26:42 10° NNW
Cosmos 2184 Rocket 3.9 19:17:21 10° S 19:23:37 72° E 19:29:50 10° NNE
Cosmos 1814 Rocket 4.0 19:19:03 10° NNW 19:24:11 61° ENE 19:28:10 16° SE
Cosmos 1544 Rocket 4.0 19:21:37 10° SSE 19:25:36 37° E 19:29:37 10° NNE
NOSS 3-1 (A) 4.1 19:18:37 10° NW 19:25:52 63° NE 19:31:36 21° ESE
ERS-1 Rocket 4.1 19:25:09 23° ENE 19:25:57 24° ENE 19:29:58 10° N
USA 215 3.8 19:20:32 12° ENE 19:26:26 54° NNW 19:32:45 10° W
Meteor 2-13 Rocket 4.5 19:21:28 10° SSE 19:27:20 53° E 19:33:16 10° NNE
Aureole 2 Rocket 3.8 19:25:20 10° N 19:27:35 22° NE 19:27:35 22° NE
H-2A R/B 2.6 19:24:26 10° SSE 19:28:10 87° WSW 19:31:59 10° NNW
CZ-2D R/B 3.1 19:25:21 10° SSE 19:29:08 74° ENE 19:32:59 10° N
Cosmos 1850 Rocket 4.2 19:23:56 10° SSW 19:29:15 79° WNW 19:34:39 10° NNE
Envisat 3.5 19:27:13 25° ESE 19:29:29 38° ENE 19:34:10 10° N
Cosmos 371 Rocket 4.0 19:26:04 10° N 19:30:33 35° ENE 19:31:49 30° E
ATLAS 2AS CENTAUR R/B 3.9 19:23:38 10° NW 19:31:06 37° NNE 19:35:32 22° ENE
ALOS 2.9 19:27:07 10° S 19:31:44 59° W 19:36:23 10° NNW
USA 32 4.5 19:27:35 10° N 19:32:30 39° ENE 19:34:42 26° SE
Cosmos 2237 Rocket 2.1 19:28:32 10° NNW 19:34:16 73° ENE 19:38:22 19° SE
Cosmos 1602 Rocket 4.3 19:32:20 10° N 19:36:16 31° ENE 19:36:16 31° ENE
Nadezhda 3 Rocket 3.9 19:30:42 10° N 19:36:50 63° ENE 19:42:57 10° SSE
NOSS 0 Rocket 3.9 19:31:04 10° NNW 19:37:16 84° WSW 19:43:18 10° SSE
COSMOS 2428 4.0 19:33:13 10° NW 19:38:32 41° WSW 19:43:50 10° S
Okean 2 3.6 19:34:40 10° NNW 19:38:51 73° W 19:43:01 10° S
Cosmos 1066 Rocket 4.4 19:33:48 10° N 19:39:19 48° ENE 19:42:02 27° SE
Cosmos 2297 Rocket 3.4 19:35:38 10° SSE 19:38:27 23° SE 19:38:27 23° SE
Cosmos 1626 Rocket 4.1 19:37:07 10° N 19:41:17 36° ENE 19:41:19 36° ENE
Abrixas rocket 2.8 19:39:40 10° SW 19:42:42 41° SSE 19:42:42 41° SSE
NOSS 3-1 (C) 4.0 19:36:23 10° NW 19:43:47 87° NE 19:49:43 21° SE
Helios 1B rocket 2.5 19:41:49 10° NNE 19:45:53 50° E 19:49:56 10° S
Cosmos 2219 Rocket 2.6 19:40:44 10° NW 19:46:16 61° WSW 19:51:46 10° SSE
Meteor 1-12 Rocket 4.5 19:41:56 10° SSE 19:47:38 49° E 19:53:16 10° NNE
Cosmos 1441 Rocket 3.3 19:44:24 10° N 19:48:20 58° ENE 19:48:42 55° ESE
Helios 1A 2.9 19:46:45 17° SSE 19:49:56 85° WSW 19:54:07 10° NNW
Gbstr 26 Del rocket 2.5 19:46:31 10° WSW 19:50:16 89° N 19:50:50 63° ENE
Cosmos 2341 Rocket 4.2 19:46:02 10° SSE 19:52:08 50° E 19:58:17 10° NNE
Cosmos 2154 Rocket 3.9 19:46:50 10° S 19:53:06 66° E 19:59:23 10° NNE
Cosmos 1536 4.5 19:49:52 10° SW 19:53:32 35° WNW 19:57:14 10° N
SAR-Lupe-1 4.3 19:53:25 28° S 19:55:10 68° WSW 19:58:46 10° NNW
SAR-Lupe-4 4.2 19:53:33 18° S 19:56:04 56° WSW 19:59:37 10° NNW
Cosmos 1939 Rocket 3.3 19:56:55 43° NE 19:56:55 43° NE 20:00:08 10° N
Cosmos 1486 Rocket 4.3 19:52:57 10° S 20:03:56 - NNE 19:57:38 44° ESE
Cosmos 1437 3.1 19:55:07 10° NNW 19:58:24 64° W 19:58:48 57° SW
Cosmos 2219 3.6 19:53:17 10° SW 19:58:59 64° WNW 20:04:43 10° NNE
Cosmos 2227 Rocket 2.3 19:55:11 10° S 20:00:37 50° ESE 20:02:45 34° ENE
Cosmos 1455 Rocket 2.9 19:58:39 10° S 20:03:00 74° E 20:07:22 10° NNE
CZ-4B DEB 3.7 20:04:34 41° NNW 20:04:34 41° NNW 20:06:45 10° NNW
Cosmos 841 Rocket 3.3 20:00:10 10° NNW 20:05:21 77° ENE 20:06:40 50° SE
SL-16 R/B 2.2 20:04:32 10° NNW 20:10:12 63° ENE 20:11:12 54° ESE
H-2A R/B 3.9 20:11:54 18° NE 20:11:54 18° NE 20:14:17 10° NNE
Cosmos 1763 Rocket 3.5 20:10:43 10° NNW 20:15:51 74° WSW 20:17:39 41° S
Resurs 01 Rocket 3.7 20:12:58 10° SSW 20:16:44 27° W 20:20:31 10° NW
Cosmos 540 Rocket 3.8 20:14:40 10° NNW 20:19:04 47° NE 20:19:04 47° NE
Meteor 2-8 Rocket 4.3 20:14:09 10° N 20:20:15 87° E 20:22:57 36° SSE
Cosmos 962 Rocket 4.3 20:16:58 10° S 20:23:09 82° E 20:29:18 10° N
Meteor 2-19 Rocket 4.3 20:25:16 60° ESE 20:25:44 62° E 20:31:50 10° NNE
GEOS 3 Rocket 3.5 20:30:36 63° NE 20:31:30 89° SE 20:36:47 10° SW
Cosmos 2333 Rocket 3.7 20:27:26 10° NW 20:32:35 35° WSW 20:37:10 13° SSW
USA 186 4.5 20:34:39 17° WNW 20:34:39 17° WNW 20:35:54 10° NW
Cosmos 836 Rocket 4.4 20:30:42 10° NNW 20:35:51 83° N 20:35:51 83° N
SPOT 5 4.0 20:43:25 35° NNE 20:43:25 35° NNE 20:46:36 10° N
Cosmos 2082 4.1 20:57:21 10° SW 21:10:44 - NNE 21:02:17 61° WSW
ERS-1 Rocket 3.7 21:05:09 51° WNW 21:05:09 51° WNW 21:09:23 10° NNW
SL-8 Rocket 4.0 21:06:49 77° NW 21:06:49 77° NW 21:12:52 10° N
Envisat 4.4 21:07:25 30° WSW 21:08:32 34° W 21:13:09 10° NNW
USA 215 3.9 21:07:52 43° NNE 21:08:51 46° N 21:15:01 10° WNW
ARGOS 4.3 21:17:17 38° NNW 21:17:17 38° NNW 21:20:32 10° NNW
Cosmos 2237 Rocket 4.3 21:13:35 10° NW 21:17:45 21° W 21:20:16 16° SW
ATLAS 2AS CENTAUR R/B 2.9 21:15:05 10° NW 21:23:00 81° N 21:23:00 81° N
Cosmos 2297 Rocket 4.0 21:18:31 10° SW 21:31:52 - NNE 21:20:30 22° SW
Terra 4.5 21:43:51 13° N 21:43:51 13° N 21:44:26 10° N
Cosmos 2227 Rocket 3.6 21:39:47 10° WSW 21:44:54 34° NW 21:44:54 34° NW
H-2A R/B 4.0 21:52:31 25° NNW 21:52:31 25° NNW 21:54:45 10° NNW
SL-16 R/B 4.1 21:49:23 10° NW 21:53:07 24° W 21:53:07 24° W
